San Diego, CA

9:10 AM PDT on July 27, 2016 (GMT -0700)
Montgomery

Weather History for KMYF - February, 2013

Change the Weather History Date:

Tuesday, February 26, 2013

  Actual Average Record
Temperature  
Mean Temperature 52 °F -  
Max Temperature 66 °F 61 °F 84 °F (2002)
Min Temperature 39 °F 46 °F 39 °F (2011)
Degree Days  
Heating Degree Days 12    
Growing Degree Days 2 (Base 50)    
Moisture  
Dew Point 34 °F    
Average Humidity 51    
Maximum Humidity 71    
Minimum Humidity 25    
Precipitation  
Precipitation 0.00 in - - ()
Sea Level Pressure  
Sea Level Pressure 30.03 in    
Wind  
Wind Speed 2 mph (NNW)    
Max Wind Speed 13 mph    
Max Gust Speed -    
Visibility 10 miles    
Events      
Averages and records for this station are not official NWS values.
T = Trace of Precipitation, MM = Missing Value Source: NWS Daily Summary

Daily Weather History Graph

Daily Weather History Graph

Search for Another Location

Airport or City:

Trip Planner

Search our weather history database for the weather conditions in past years. The results will help you decide how hot, cold, wet, or windy it might be!

Date:

Astronomy

Feb. 26, 2013 Rise Set
Actual Time 6:19 AM PST 5:43 PM PST
Civil Twilight 5:54 AM PST 6:08 PM PST
Nautical Twilight 5:26 AM PST 6:37 PM PST
Astronomical Twilight 4:57 AM PST 7:05 PM PST
Moon 6:57 PM PST (2/26) 6:30 AM PST (2/26)
Length of Visible Light 12h 13m
Length of Day
11h 24m
Full, 99% of the Moon is Illuminated
Feb 26
Full
Mar 4
Last Quarter
Mar 11
New
Mar 19
First Quarter
Mar 27
Full

Hourly Weather History & Observations

Time (PST) Temp. Windchill Dew Point Humidity Pressure Visibility Wind Dir Wind Speed Gust Speed Precip Events Conditions
12:53 AM 45.0 °F - 33.1 °F 63% 30.07 in 10.0 mi Calm Calm - N/A   Clear
1:53 AM 43.0 °F - 30.0 °F 60% 30.04 in 10.0 mi Calm Calm - N/A   Clear
2:53 AM 41.0 °F - 28.9 °F 62% 30.03 in 10.0 mi Calm Calm - N/A   Clear
3:53 AM 39.9 °F - 28.0 °F 63% 30.02 in 10.0 mi Calm Calm - N/A   Clear
4:53 AM 39.0 °F - 27.0 °F 62% 30.01 in 10.0 mi Calm Calm - N/A   Clear
5:53 AM 39.9 °F - 28.0 °F 63% 30.01 in 10.0 mi Calm Calm - N/A   Clear
6:53 AM 39.9 °F 37.8 °F 27.0 °F 60% 30.02 in 10.0 mi NE 3.5 mph - N/A   Clear
7:53 AM 48.9 °F - 28.0 °F 44% 30.03 in 10.0 mi Calm Calm - N/A   Clear
8:53 AM 55.0 °F - 27.0 °F 34% 30.04 in 10.0 mi NNE 3.5 mph - N/A   Clear
9:53 AM 60.1 °F - 30.0 °F 32% 30.04 in 10.0 mi Calm Calm - N/A   Clear
10:53 AM 63.0 °F - 33.1 °F 33% 30.03 in 10.0 mi NW 4.6 mph - N/A   Clear
11:53 AM 66.0 °F - 28.9 °F 25% 30.02 in 10.0 mi Variable 5.8 mph - N/A   Clear
12:53 PM 66.0 °F - 33.1 °F 29% 29.99 in 10.0 mi WNW 6.9 mph - N/A   Clear
1:53 PM 64.0 °F - 34.0 °F 33% 29.99 in 10.0 mi WNW 9.2 mph - N/A   Clear
2:53 PM 63.0 °F - 34.0 °F 34% 29.99 in 10.0 mi NNW 12.7 mph - N/A   Clear
3:53 PM 63.0 °F - 44.1 °F 50% 29.99 in 10.0 mi NW 9.2 mph - N/A   Clear
4:53 PM 60.1 °F - 39.9 °F 47% 29.99 in 10.0 mi NW 10.4 mph - N/A   Clear
5:53 PM 57.0 °F - 43.0 °F 59% 30.00 in 10.0 mi NNW 4.6 mph - N/A   Clear
6:53 PM 55.9 °F - 43.0 °F 62% 30.03 in 10.0 mi North 3.5 mph - N/A   Clear
7:53 PM 55.9 °F - 41.0 °F 57% 30.04 in 10.0 mi NNW 3.5 mph - N/A   Clear
8:53 PM 53.1 °F - 41.0 °F 64% 30.07 in 10.0 mi Calm Calm - N/A   Clear
9:53 PM 53.1 °F - 41.0 °F 64% 30.09 in 10.0 mi Calm Calm - N/A   Clear
10:53 PM 48.9 °F - 39.9 °F 71% 30.11 in 10.0 mi Calm Calm - N/A   Clear